CZ-6A DEB

Satellite information

Favourite Embed

Satellite Type and Status

DEBRISIN ORBIT

Key statistics

Satellite CZ-6A DEB at a glance.

Uptime

278

Days in orbit

Revolutions

≈ 15.1

Per day

Orbit

LEO

Low Earth Orbit

Inclination

89.0

Latest

Satellite identification and parameters

Extended collection of information and parameters for CZ-6A DEB.

Object identification

Identified? True

Debris? True

Object name: CZ-6A DEB

International designator: 2024-140JX

Object number (NORAD): 60868

Object ID (CCSDS): 60868

Country: PEOPLES REPUBLIC OF CHINA (PRC)

Current information (Y/N): Y

RCS size: SMALL

Orbital parameters

Period: 95.64 minutes

Inclination: 89.0212 deg

SMA: 6927.672 km

Apoapsis: 587.336 km

Periapsis: 511.737 km

RAAN: 318.6064 deg

Eccentricy: 0.0054563

Argument of periapsis: 176.3091 deg

Mean anomaly: 183.8561 deg

Mean motion: 15.05642288 rev/day

Mean motion (dot): 0.00140902 rev/day2

B* drag term: 0.009283 1/REarth

Two-line elements (TLE)

Creation date: May 10, 2025, 5:27 p.m.

Reference frame: TEME

Reference center: EARTH

Epoch: May 10, 2025, 12:35 a.m. UTC

TLE line 0: 0 CZ-6A DEB

TLE line 1: 1 60868U 24140JX 25130.02433780 .00140902 00000-0 92830-2 0 9997

TLE line 2: 2 60868 89.0212 318.6064 0054563 176.3091 183.8561 15.05642288 39487

Live tracking on map

Real-time ground track for satellite CZ-6A DEB.

In-orbit conjunctions

A list of the most updated potential collisions computed for object CZ-6A DEB.

Target Orbit TCA Probability of collision Miss distance Type
OKEAN O SSO 2025-03-21 17:16:29 0.0001515688 162.0 (m) PAYLOAD
FENGYUN 1C DEB SSO 2024-12-15 13:32:33 0.0001665549 177.0 (m) DEBRIS
SL-14 R/B LEO 2024-10-28 05:45:57 0.0001309167 30.0 (m) ROCKET BODY
PEGASUS R/B LEO 2024-10-10 07:38:40 0.0001488403 347.0 (m) ROCKET BODY

Associated space launch

18 Low Earth Orbit communication satellites with Ku, Q and V band payloads for the G60 constellation operated by Shanghai Spacecom Satellite Technology (SSST) with funding backed by the Shanghai local government. Initial constellation will consist of 1296 satellites by 2027 with long term plans to expand it to 12000 satellites.

CZ-6A DEB was lifted into orbit during the mission ‘Long March 6A | G60 Polar Group 01’, on board a Long March 6A space rocket.

The launch took place on Aug. 6, 2024, 6:42 a.m. from Launch Complex 9A.

For more information about the launch, click the button.

Launch to space Long March 6A | G60 Polar Group 01
Long March 6A | G60 Polar Group 01

Agency: N/A

Status: Launch Successful

Launch date: Aug. 6, 2024, 6:42 a.m. UTC

Rocket: Long March 6A

Launch pad: Launch Complex 9A

Location: Taiyuan Satellite Launch Center, People's Republic of China

...

Latest news about this satellite

News about space launch
Brightness of first Chinese broadband constellation satellites alarms astronomers

The first satellites of a Chinese broadband constellation are significantly brighter than those of Western systems, posing a new challenge for astronomers.

News about space launch
Chinese rocket stage breaks up into cloud of more than 700 pieces of space debris

HELSINKI — A Chinese Long March 6A rocket’s upper stage has fragmented into a cloud of over 700 pieces of space debris, adding to concerns about long-term orbital safety. China […]

News about space launch
China's Thousand Sails Megaconstellation Kicks Off with Dangerous Debris Field

China's Thousand Sails Megaconstellation Kicks Off with Dangerous Debris Field


Newsletter sign-up

Weekly statistics, charts and insights to help you stay on top of the space industry.